Regional Weather Roundup
Issued by NWS Charleston, SC

Current Version | Previous Version | Text Only | Print | Product List | Glossary Off
Versions: 1 2 3 4 5 6 7 8 9 10 11 12 13 14 15 16 17 18 19 20 21 22 23 24 25 26 27 28 29 30 31 32 33 34 35 36 37 38 39 40 41 42 43 44 45 46 47 48 49 50

000
ASUS42 KCHS 210425
RWRCHS

REGIONAL WEATHER ROUNDUP
NATIONAL WEATHER SERVICE CHARLESTON SC
1200 AM EDT TUE OCT 21 2014

NOTE: "FAIR" INDICATES FEW OR NO CLOUDS BELOW 12,000 FEET WITH NO
SIGNIFICANT WEATHER AND/OR OBSTRUCTIONS TO VISIBILITY.

NOT ALL STATIONS ARE QUALITY CONTROLLED BY THE NATIONAL
WEATHER SERVICE. USE DATA WITH CAUTION...ESPECIALLY
DEWPOINT OBSERVATIONS.

SCZ027-030-031-034>040-042>050-210500-
...SOUTH CAROLINA...

CITY           SKY/WX    TMP DP  RH WIND       PRES   REMARKS
N CHARLESTON   PTCLDY    66  60  81 CALM      30.00F
WATERFRONT PRK   N/A     70 N/A N/A CALM        N/A
FORT JOHNSON   NOT AVBL
JOHNS ISLAND   PTCLDY    64  64 100 CALM      29.99F
PINOPOLIS        N/A     68  61  77 S2        29.92F
MONCKS CORNER  FAIR      61  61 100 CALM      30.00F
SUMMERVILLE    MOCLDY    59  59 100 CALM      30.00F
BEAUFORT MCAS  MOCLDY    68  65  90 CALM      29.99F
BEAUFORT ARPT  CLOUDY    68  64  88 CALM      29.98F
HILTON HEAD IS   N/A     64  63  94 CALM      30.00S
GEORGETOWN     NOT AVBL
WALTERBORO     MOCLDY    63 N/A N/A CALM      30.00F
ORANGEBURG     PTCLDY    59  55  87 CALM      30.00F
BARNWELL       FAIR      57  55  94 CALM      30.01F
AIKEN          FAIR      54  52  94 CALM      30.03F
MANNING        FAIR      59 N/A N/A CALM      30.00F
KINGSTREE      NOT AVBL
COLUMBIA       PTCLDY    54  50  86 W3        29.99F
SUMTER         CLEAR     57  54  91 CALM      29.99S
FLORENCE       CLEAR     56  53  90 CALM      29.99F
MYRTLE BEACH   PTCLDY    61  55  82 SW5       30.00F
N MYRTLE BEACH PTCLDY    58  57  97 CALM      29.99F FOG

$$

GAZ063-065-086>088-099>101-113>116-118-119-134-136>141-150-210500-
...GEORGIA...

CITY           SKY/WX    TMP DP  RH WIND       PRES   REMARKS
SAVANNAH ARPT  MOCLDY    68  62  81 CALM      30.00S
HUNTER AAF     MOCLDY    65  64  94 CALM      29.97F
FORT STEWART   CLOUDY    65  62  91 CALM      29.98S
STATESBORO     NOT AVBL
SYLVANIA       CLEAR     65  64  96 CALM      30.01F
CLAXTON        CLOUDY    64  64 100 CALM      30.00S
THOMSON        PTCLDY    54  54 100 CALM      30.05F
AUGUSTA-BUSH   PTCLDY    52  49  89 CALM      30.01S
AUGUSTA-DANIEL PTCLDY    62  51  67 CALM      30.01F
SWAINSBORO     MOCLDY    63  59  88 MISG      30.02S
VIDALIA        CLEAR     63  59  88 CALM      30.01F
ALMA           PTCLDY    64  62  93 CALM      30.00S
WAYCROSS       CLOUDY    69  68  96 N3        29.99F
JESUP          MOCLDY    64  63  94 CALM      29.99F
BRUNSWICK      PTCLDY    64  63  94 CALM      29.99F
SAINT SIMONS   PTCLDY    71  68  90 S3        29.99S

$$

SCZ027-028-034-036>038-045-046-048>050-GAZ119-141-210500-
...LAKE AND SUPPLEMENTAL COASTAL OBSERVATIONS...

STATION/POSITION TIME  TEMP    WIND        PRES    WAVE   SWELL
                       AIR SEA DIR/SP/G            HT/PER HT/PER/DIR
                 (UTC) (F)     (DEG/KT/KT) (MB)    (FT/S) (FT/S/D)
UPR LAKE MARION  NOT AVBL
WINYAH BAY       0400   61     310/  2     1016.0S
LAKE MURRAY      0300   62        CALM     1015.2F
ACE BASIN NERRS  0400   64        CALM     1015.0S
FORT PULASKI     0400   71      CALM  /  1 1015.6F
SAPELO ISLAND    NOT AVBL

$$

ANZ835-935-AMZ111-154-330-350-352-354-374-450-454-472-210500-
...C-MAN AND BUOY OBSERVATIONS...

STATION/POSITION TIME  TEMP    WIND        PRES    WAVE   SWELL
                       AIR SEA DIR/SP/G            HT/PER HT/PER/DIR
                 (UTC) (F)     (DEG/KT/KT) (MB)    (FT/S) (FT/S/D)
FOLLY BEACH CMAN 0400   70      CALM  /  3 1016.1F
BUOY 41004       0400   75 80  340/  4/  4 1015.6F   2/ 9   2/ 9
BUOY 41008       0400   77 76  170/ 10/ 12 1015.4F   2/ 9   2/ 80/ 9
5E ST. MARYS GA  0300      77                N/A     2/ 9
FRYING PAN BUOY  0400   74 75  260/ 21/ 23 1016.0F   3/ 4   2/120/ 9
BUOY 41025       0400   72     180/ 16/ 19 1016.3F   4/ 8   2/ 70/ 8
CAPE LOOKOUT NC  0400   67     240/  4/  4 1016.0R
BUOY 41002       0338   75 80  160/ 14/ 16 1017.4F   4/12   3/ 60/12
BUOY 41010       0400   80 80  170/ 10/ 14 1015.4F   3/ 9   2/ 70/ 9
BUOY 41012       NOT AVBL
ST AUGUSTINE FL  0400   77     160/ 10/ 11 1015.9S
CAPERS NEARSHORE 0300   73     220/  4/  4   N/A
FRIPP NEARSHORE  NOT AVBL


$$


USA.gov is the U.S. government's official web portal to all federal, state and local government web resources and services.